Location: Corralito
(10.2667°N, 66.9500°W)
Time: 19:26:30
(UTC+00:00)

CZ-4B R/B - Pass Details

Date: 23 March 2023
Orbit: 809 x 881 km, 99.0° (Epoch: 09 June)

Event Time Altitude Azimuth Distance (km) Brightness Sun altitude
Rises 23:41:00 0° 160° (SSE) 3,449 6.1 -16.2°
Reaches altitude 10° 23:43:24 10° 156° (SSE) 2,518 5.4 -16.7°
Maximum altitude 23:48:56 63° 76° (ENE) 976 3.2 -18.1°
Drops below altitude 10° 23:54:30 10° 356° (N) 2,531 5.8 -19.5°
Sets 23:56:55 0° 353° (N) 3,468 6.5 -20.1°
